Location: Aghk�ilisa
(40.0189°N, 45.0097°E)
Time: 08:31:57
(UTC+00:00)

Lacrosse 5 - Pass Details

Date: 21 October 2019
Orbit: 715 x 724 km, 57.0° (Epoch: 12 November)

Event Time Altitude Azimuth Distance (km) Brightness Sun altitude
Rises 14:58:24 0° 321° (NW) 3,123 5.7 -9.5°
Reaches altitude 10° 15:01:00 10° 331° (NNW) 2,200 4.7 -10.0°
Maximum altitude 15:05:34 33° 35° (NE) 1,195 2.7 -10.9°
Enters shadow 15:09:01 16° 92° (E) 1,839 3.3 -11.5°
